This demonstration page uses our WeatherBlox Daily Observations layout. Learn more.

38.88101, -77.10428

Hourly Observations for August 9, 2017

Temp ( °F °C ) Dew Point ( °F °C ) Humidity (%) Winds ( mph kmh ) Pressure ( in mb ) Visibility ( mi km ) Precip ( " mm )
12:52 am 00:52 Mostly Clear 70 21.1 64 17.8 82 82 W 3 6 30.15 1021 10 16.0934 0 0
1:52 am 01:52 Mostly Clear 70 21.1 64 17.8 82 82 Calm 30.15 1021 10 16.0934 0 0
2:52 am 02:52 Partly Cloudy 71 21.7 64 17.8 79 79 Calm 30.15 1021 8 12.87472 0 0
3:52 am 03:52 Partly Cloudy 68 20 65 18.3 90 90 Calm 30.15 1021 10 16.0934 0 0
4:52 am 04:52 Mostly Clear 66 18.9 62 16.7 87 87 NNW 5 7 30.16 1021 10 16.0934 0 0
5:52 am 05:52 Mostly Clear 65 18.3 60 15.6 84 84 N 7 11 30.18 1022 10 16.0934 0 0
6:52 am 06:52 Mostly Sunny 66 18.9 59 15 78 78 NNW 10 17 30.19 1022 10 16.0934 0 0
7:52 am 07:52 Mostly Sunny 69 20.6 61 16.1 76 76 N 6 9 30.2 1023 10 16.0934 0 0
8:52 am 08:52 Mostly Sunny 73 22.8 59 15 62 62 N 6 9 30.22 1023 10 16.0934 0 0
9:52 am 09:52 Mostly Sunny 76 24.4 59 15 56 56 NNW 3 6 30.22 1024 10 16.0934 0 0
10:52 am 10:52 Mostly Sunny 79 26.1 59 15 50 50 NE 5 7 30.23 1024 10 16.0934 0 0
11:52 am 11:52 Mostly Sunny 82 27.8 51 10.6 34 34 NNE 3 6 30.22 1024 10 16.0934 0 0
12:52 pm 12:52 Partly Cloudy 83 28.3 53 11.7 36 36 ESE 7 11 30.21 1023 10 16.0934 0 0
1:52 pm 13:52 Mostly Sunny 83 28.3 52 11.1 34 34 ESE 3 6 30.21 1023 10 16.0934 0 0
2:52 pm 14:52 Mostly Sunny 85 29.4 55 12.8 36 36 NE 3 6 30.2 1023 10 16.0934 0 0
3:52 pm 15:52 Mostly Sunny 85 29.4 54 12.2 35 35 NNW 5 7 30.19 1022 10 16.0934 0 0
4:52 pm 16:52 Mostly Sunny 83 28.3 56 13.3 40 40 S 8 13 30.19 1022 10 16.0934 0 0
5:52 pm 17:52 Mostly Sunny 82 27.8 59 15 46 46 SE 8 13 30.19 1022 10 16.0934 0 0
6:52 pm 18:52 Partly Cloudy 81 27.2 57 13.9 44 44 SE 7 11 30.2 1023 10 16.0934 0 0
7:52 pm 19:52 Mostly Cloudy 79 26.1 59 15 50 50 ESE 7 11 30.19 1022 10 16.0934 0 0
8:52 pm 20:52 Partly Cloudy 77 25 59 15 54 54 ESE 5 7 30.21 1023 10 16.0934 0 0
9:52 pm 21:52 Partly Cloudy 76 24.4 59 15 56 56 SSE 5 7 30.22 1024 10 16.0934 0 0
10:52 pm 22:52 Partly Cloudy 74 23.3 61 16.1 64 64 SSE 5 7 30.24 1024 10 16.0934 0 0
11:52 pm 23:52 Partly Cloudy 74 23.3 62 16.7 67 67 Calm 30.24 1024 10 16.0934 0 0

Powered by AerisWeather